Location: Beugnon
(47.6222°N, 3.7850°E)
Time: 13:03:22
(UTC+00:00)

Cosmos 1726 - Pass Details

Date: 09 April 2020
Orbit: 481 x 500 km, 82.5° (Epoch: 27 May)

Event Time Altitude Azimuth Distance (km) Brightness Sun altitude
Rises 19:00:51 0° 191° (S) 2,582 5.7 -6.4°
Reaches altitude 10° 19:02:57 10° 192° (SSW) 1,702 4.8 -6.7°
Maximum altitude 19:06:41 78° 279° (W) 517 2.3 -7.3°
Drops below altitude 10° 19:10:26 10° 7° (N) 1,712 5.0 -7.9°
Sets 19:12:34 0° 9° (N) 2,598 5.9 -8.2°
